TimeCST,TemperatureF,Dew PointF,Humidity,Sea Level PressureIn,VisibilityMPH,Wind Direction,Wind SpeedMPH,Gust SpeedMPH,PrecipitationIn,Events,Conditions,WindDirDegrees,DateUTC
12:15 AM,26.1,21.0,81,30.15,10.0,NW,8.1,-,N/A,,Clear,310,2013-02-28 06:15:00
12:35 AM,24.1,20.1,85,30.15,10.0,NW,10.4,-,N/A,,Scattered Clouds,310,2013-02-28 06:35:00
12:55 AM,23.5,19.6,85,30.16,10.0,NW,10.4,-,N/A,,Clear,310,2013-02-28 06:55:00
1:15 AM,25.7,21.4,84,30.16,10.0,NW,11.5,-,N/A,,Mostly Cloudy,320,2013-02-28 07:15:00
1:35 AM,26.8,22.1,83,30.16,10.0,NNW,9.2,-,N/A,,Overcast,330,2013-02-28 07:35:00
1:55 AM,27.5,22.5,81,30.16,10.0,NNW,9.2,-,N/A,,Overcast,330,2013-02-28 07:55:00
2:15 AM,26.2,21.7,83,30.16,10.0,NW,9.2,-,N/A,,Overcast,320,2013-02-28 08:15:00
2:35 AM,26.1,21.7,84,30.16,10.0,NW,12.7,-,N/A,,Overcast,320,2013-02-28 08:35:00
2:55 AM,26.2,21.7,83,30.16,10.0,NW,11.5,-,N/A,,Overcast,320,2013-02-28 08:55:00
3:15 AM,26.6,22.1,83,30.17,10.0,NW,12.7,-,N/A,,Overcast,320,2013-02-28 09:15:00
3:55 AM,27.1,22.6,83,30.17,10.0,NNW,10.4,-,N/A,,Overcast,340,2013-02-28 09:55:00
4:35 AM,27.1,22.8,84,30.17,10.0,NNW,12.7,19.6,N/A,,Overcast,330,2013-02-28 10:35:00
4:55 AM,27.5,23.0,83,30.17,10.0,NNW,12.7,18.4,N/A,,Overcast,330,2013-02-28 10:55:00
5:15 AM,27.5,23.4,84,30.18,10.0,NNW,13.8,17.3,N/A,,Overcast,340,2013-02-28 11:15:00
5:35 AM,27.9,23.4,83,30.18,10.0,NNW,12.7,17.3,N/A,,Overcast,340,2013-02-28 11:35:00
5:55 AM,28.0,23.4,83,30.18,10.0,NNW,12.7,-,N/A,,Overcast,340,2013-02-28 11:55:00
6:15 AM,28.4,23.7,83,30.18,10.0,NNW,9.2,16.1,N/A,,Overcast,330,2013-02-28 12:15:00
6:35 AM,28.8,23.7,81,30.18,10.0,NNW,16.1,20.7,N/A,,Overcast,340,2013-02-28 12:35:00
6:55 AM,28.8,23.9,82,30.19,10.0,North,12.7,17.3,N/A,,Overcast,350,2013-02-28 12:55:00
7:15 AM,28.8,23.9,82,30.19,10.0,NNW,10.4,-,N/A,,Overcast,340,2013-02-28 13:15:00
7:35 AM,28.4,23.7,83,30.19,10.0,NNW,11.5,-,N/A,,Overcast,340,2013-02-28 13:35:00
7:55 AM,28.2,23.0,81,30.19,10.0,NNW,11.5,-,N/A,,Overcast,340,2013-02-28 13:55:00
8:15 AM,28.0,22.8,81,30.19,10.0,NNW,11.5,-,N/A,,Mostly Cloudy,340,2013-02-28 14:15:00
8:35 AM,28.2,23.0,81,30.20,10.0,NNW,10.4,17.3,N/A,,Mostly Cloudy,340,2013-02-28 14:35:00
8:55 AM,28.2,23.2,81,30.20,10.0,NW,10.4,-,N/A,,Overcast,320,2013-02-28 14:55:00
9:15 AM,26.1,21.2,82,30.21,10.0,NW,11.5,-,N/A,,Overcast,310,2013-02-28 15:15:00
9:35 AM,25.9,21.2,82,30.22,10.0,NW,10.4,-,N/A,,Overcast,310,2013-02-28 15:35:00
9:55 AM,26.1,21.2,82,30.22,10.0,NNW,9.2,-,N/A,,Overcast,330,2013-02-28 15:55:00
10:15 AM,27.5,22.1,80,30.22,10.0,NNW,9.2,-,N/A,,Overcast,330,2013-02-28 16:15:00
10:35 AM,28.4,22.6,79,30.22,10.0,NNW,11.5,17.3,N/A,,Overcast,330,2013-02-28 16:35:00
10:55 AM,29.3,23.0,77,30.22,10.0,NNW,10.4,-,N/A,,Overcast,330,2013-02-28 16:55:00
11:15 AM,30.6,23.9,76,30.22,10.0,NNW,12.7,-,N/A,,Overcast,340,2013-02-28 17:15:00
11:35 AM,31.5,24.4,75,30.22,10.0,NNW,12.7,-,N/A,,Mostly Cloudy,330,2013-02-28 17:35:00
11:55 AM,31.8,24.4,74,30.22,10.0,NW,11.5,-,N/A,,Scattered Clouds,320,2013-02-28 17:55:00
12:15 PM,32.0,24.6,74,30.22,10.0,NNW,8.1,-,N/A,,Clear,330,2013-02-28 18:15:00
12:35 PM,32.4,25.2,75,30.21,10.0,NNW,10.4,-,N/A,,Clear,330,2013-02-28 18:35:00
12:55 PM,33.3,25.0,72,30.21,10.0,NNW,11.5,-,N/A,,Clear,340,2013-02-28 18:55:00
1:15 PM,33.3,24.8,71,30.20,10.0,NNW,10.4,-,N/A,,Clear,340,2013-02-28 19:15:00
1:35 PM,33.8,25.0,70,30.20,10.0,North,10.4,-,N/A,,Clear,350,2013-02-28 19:35:00
1:55 PM,34.0,25.0,70,30.19,10.0,North,10.4,-,N/A,,Clear,350,2013-02-28 19:55:00
2:15 PM,34.2,25.2,70,30.19,10.0,North,9.2,-,N/A,,Clear,350,2013-02-28 20:15:00
2:35 PM,34.9,25.5,69,30.19,10.0,NW,9.2,-,N/A,,Clear,310,2013-02-28 20:35:00
2:55 PM,35.1,25.5,68,30.19,10.0,NW,8.1,-,N/A,,Scattered Clouds,320,2013-02-28 20:55:00
3:35 PM,34.9,25.7,69,30.18,10.0,NW,8.1,-,N/A,,Clear,320,2013-02-28 21:35:00
3:55 PM,34.9,25.9,70,30.18,10.0,NNW,8.1,-,N/A,,Clear,330,2013-02-28 21:55:00
4:15 PM,35.1,26.1,70,30.18,10.0,NNW,4.6,-,N/A,,Clear,330,2013-02-28 22:15:00
4:35 PM,35.1,25.9,69,30.17,10.0,NNW,5.8,-,N/A,,Clear,330,2013-02-28 22:35:00
4:55 PM,34.9,25.7,69,30.17,10.0,NNW,6.9,-,N/A,,Clear,340,2013-02-28 22:55:00
5:15 PM,34.7,26.1,71,30.18,10.0,NW,5.8,-,N/A,,Clear,320,2013-02-28 23:15:00
5:35 PM,34.0,25.9,72,30.18,10.0,NNW,4.6,-,N/A,,Clear,330,2013-02-28 23:35:00
5:55 PM,32.7,25.7,75,30.18,10.0,North,4.6,-,N/A,,Clear,350,2013-02-28 23:55:00
6:15 PM,32.4,25.5,76,30.18,10.0,North,4.6,-,N/A,,Clear,360,2013-03-01 00:15:00
6:35 PM,30.7,25.5,81,30.18,10.0,Calm,Calm,-,N/A,,Clear,0,2013-03-01 00:35:00
7:15 PM,29.7,25.2,83,30.19,10.0,Calm,Calm,-,N/A,,Clear,0,2013-03-01 01:15:00
7:35 PM,28.0,23.9,84,30.20,10.0,ENE,8.1,-,N/A,,Clear,70,2013-03-01 01:35:00
7:55 PM,26.2,23.0,88,30.20,10.0,East,6.9,-,N/A,,Clear,80,2013-03-01 01:55:00
8:15 PM,28.2,24.8,87,30.20,10.0,East,5.8,-,N/A,,Clear,80,2013-03-01 02:15:00
8:35 PM,27.5,23.9,86,30.20,10.0,East,6.9,-,N/A,,Clear,80,2013-03-01 02:35:00
9:15 PM,25.0,22.6,91,30.20,7.0,Calm,Calm,-,N/A,,Clear,0,2013-03-01 03:15:00
9:35 PM,24.4,22.3,91,30.20,7.0,Calm,Calm,-,N/A,,Clear,0,2013-03-01 03:35:00
9:55 PM,23.2,21.4,93,30.21,3.0,Calm,Calm,-,N/A,,Clear,0,2013-03-01 03:55:00
10:15 PM,22.1,20.3,93,30.20,3.0,Calm,Calm,-,N/A,,Clear,0,2013-03-01 04:15:00
10:35 PM,19.9,17.8,91,30.21,7.0,Calm,Calm,-,N/A,,Clear,0,2013-03-01 04:35:00
10:55 PM,18.3,16.3,92,30.21,0.5,Calm,Calm,-,N/A,Fog,Light Freezing Fog,0,2013-03-01 04:55:00
11:35 PM,16.5,14.4,91,30.20,3.0,Calm,Calm,-,N/A,,Clear,0,2013-03-01 05:35:00